Total_Precipitation_Accumulation
0.30 0.45 1.03 1.27 1.35 1.37 1.36 1.30 1.16 1.09 1.09 1.25 1.34 1.33 1.22 1.18 1.19 1.20 1.20 1.25 1.40 1.64 1.83 1.91 1.81 1.76 1.59 1.46 1.29 1.03 0.90 0.80 0.75 0.70 0.68 0.78 0.89 0.89 0.74 0.70 0.69 0.70 1.00
0.29 0.40 0.94 1.32 1.44 1.45 1.46 1.36 1.15 1.02 1.05 1.18 1.38 1.44 1.39 1.26 1.22 1.29 1.33 1.36 1.60 1.77 1.84 1.91 1.75 1.65 1.49 1.28 1.06 0.83 0.68 0.55 0.47 0.39 0.36 0.52 0.72 0.85 0.74 0.69 0.70 0.86 0.92
0.34 0.46 0.85 1.32 1.54 1.58 1.57 1.44 1.23 1.06 1.09 1.10 1.28 1.45 1.51 1.43 1.40 1.42 1.47 1.55 1.68 1.69 1.71 1.76 1.71 1.55 1.26 1.04 0.87 0.71 0.59 0.46 0.39 0.32 0.34 0.47 0.67 0.94 0.91 0.81 0.84 0.99 0.94
0.39 0.55 0.85 1.35 1.62 1.68 1.58 1.47 1.35 1.21 1.12 1.10 1.18 1.36 1.50 1.55 1.58 1.56 1.58 1.71 1.67 1.57 1.55 1.52 1.45 1.33 1.10 0.91 0.79 0.71 0.58 0.48 0.39 0.33 0.43 0.52 0.65 1.18 1.26 1.12 1.07 1.05 0.95
0.50 0.67 1.04 1.55 1.76 1.79 1.67 1.57 1.49 1.34 1.19 1.19 1.22 1.24 1.35 1.49 1.62 1.77 1.78 1.78 1.68 1.50 1.43 1.39 1.24 1.18 1.07 0.98 0.84 0.70 0.59 0.47 0.35 0.37 0.48 0.59 0.86 1.51 1.36 1.21 1.13 1.09 0.97
0.68 0.91 1.23 1.66 1.82 1.83 1.78 1.72 1.67 1.49 1.36 1.41 1.40 1.35 1.32 1.38 1.52 1.71 1.76 1.70 1.64 1.50 1.42 1.31 1.18 1.11 1.06 0.97 0.89 0.75 0.61 0.46 0.35 0.39 0.48 0.60 0.84 1.43 1.31 1.13 1.09 1.07 1.01
0.92 1.13 1.39 1.72 1.88 1.86 1.84 1.85 1.81 1.76 1.72 1.69 1.63 1.50 1.43 1.39 1.42 1.48 1.51 1.47 1.55 1.50 1.38 1.35 1.22 1.14 1.05 0.97 0.92 0.76 0.62 0.44 0.37 0.45 0.51 0.60 0.96 1.42 1.38 1.21 1.19 1.17 1.14
1.21 1.39 1.60 1.92 2.06 2.00 1.91 1.90 1.95 2.01 2.02 1.93 1.83 1.68 1.52 1.48 1.43 1.36 1.33 1.31 1.43 1.46 1.41 1.35 1.24 1.13 1.04 0.97 0.91 0.80 0.61 0.43 0.38 0.39 0.44 0.65 1.10 1.40 1.38 1.21 1.17 1.19 1.20
1.61 1.77 1.98 2.10 2.06 2.11 2.07 2.04 2.03 2.08 2.07 2.01 1.84 1.75 1.60 1.52 1.43 1.32 1.25 1.31 1.36 1.40 1.38 1.31 1.25 1.10 1.01 0.92 0.78 0.67 0.52 0.41 0.37 0.37 0.43 0.69 1.11 1.45 1.41 1.21 1.12 1.12 1.13
2.14 2.25 2.40 2.47 2.31 2.22 2.14 2.12 2.05 2.01 2.07 2.09 1.93 1.65 1.47 1.44 1.46 1.35 1.15 1.26 1.38 1.36 1.36 1.26 1.22 1.15 0.95 0.80 0.68 0.60 0.46 0.38 0.36 0.38 0.50 0.73 1.06 1.38 1.40 1.22 1.18 1.17 1.17
2.66 2.70 2.72 2.79 2.73 2.60 2.46 2.22 2.21 2.16 2.15 2.06 1.89 1.67 1.56 1.54 1.42 1.27 1.01 1.03 1.26 1.33 1.32 1.28 1.17 1.08 0.91 0.73 0.64 0.54 0.44 0.38 0.42 0.46 0.55 0.84 1.14 1.29 1.35 1.25 1.20 1.19 1.20
2.79 2.95 2.98 3.02 3.00 2.91 2.74 2.60 2.45 2.32 2.25 2.05 1.75 1.62 1.64 1.60 1.47 1.24 1.11 1.03 1.17 1.25 1.31 1.33 1.22 1.06 0.90 0.72 0.68 0.60 0.48 0.44 0.49 0.49 0.61 0.89 1.14 1.27 1.26 1.21 1.20 1.15 1.14
3.03 3.28 3.37 3.40 3.45 3.48 3.22 2.91 2.74 2.56 2.31 2.23 1.92 1.74 1.68 1.77 1.71 1.58 1.34 1.24 1.26 1.20 1.20 1.26 1.19 0.98 0.80 0.68 0.64 0.56 0.53 0.53 0.53 0.54 0.65 0.78 1.03 1.23 1.22 1.20 1.19 1.20 1.24
3.25 3.52 3.86 3.90 3.87 3.89 3.63 3.27 2.95 2.77 2.51 2.28 2.18 2.00 1.87 1.82 1.71 1.62 1.41 1.24 1.21 1.11 1.09 1.20 1.17 0.99 0.87 0.71 0.66 0.64 0.63 0.60 0.57 0.59 0.65 0.71 0.86 1.16 1.31 1.37 1.32 1.25 1.35
3.16 3.53 4.00 4.10 4.00 3.94 3.74 3.41 3.07 2.91 2.75 2.47 2.46 2.36 2.12 1.96 1.82 1.73 1.65 1.44 1.33 1.20 1.06 1.08 1.23 1.14 1.06 0.97 0.82 0.71 0.70 0.68 0.63 0.59 0.60 0.66 0.74 1.00 1.27 1.41 1.41 1.47 1.50
3.20 3.43 3.88 4.10 4.01 3.99 3.81 3.44 3.10 2.86 2.82 2.71 2.45 2.32 2.29 2.14 2.00 1.93 1.80 1.60 1.43 1.28 1.13 1.05 1.12 1.22 1.18 1.13 1.04 0.92 0.85 0.78 0.69 0.64 0.58 0.61 0.68 0.79 1.05 1.26 1.38 1.53 1.73
3.22 3.50 3.71 4.03 4.20 4.02 3.94 3.57 3.21 3.06 2.89 2.77 2.54 2.32 2.30 2.26 2.15 2.11 1.97 1.72 1.57 1.50 1.36 1.27 1.28 1.32 1.25 1.12 1.04 1.02 0.98 0.87 0.77 0.71 0.64 0.61 0.61 0.68 0.87 1.13 1.28 1.46 1.67
3.24 3.53 3.68 3.86 4.07 4.05 4.03 3.87 3.35 3.10 3.01 2.88 2.72 2.52 2.37 2.33 2.29 2.31 2.17 1.90 1.86 1.92 1.76 1.56 1.48 1.41 1.28 1.19 1.09 1.08 1.04 0.98 0.83 0.75 0.71 0.66 0.64 0.66 0.81 1.06 1.20 1.31 1.48
3.12 3.47 3.71 3.84 3.95 4.15 4.17 4.10 3.90 3.51 3.11 3.08 3.02 2.74 2.44 2.34 2.33 2.32 2.27 2.15 2.15 2.17 2.08 1.86 1.74 1.67 1.48 1.35 1.27 1.25 1.23 1.19 1.09 0.93 0.83 0.82 0.79 0.77 0.92 1.14 1.23 1.23 1.28
3.08 3.44 3.74 3.82 3.85 4.17 4.49 4.45 4.25 4.02 3.47 3.11 3.05 2.90 2.66 2.43 2.31 2.29 2.21 2.29 2.35 2.32 2.26 2.17 1.99 1.90 1.79 1.68 1.59 1.47 1.45 1.41 1.28 1.09 0.96 0.93 0.92 0.92 1.03 1.11 1.14 1.21 1.24
2.98 3.30 3.59 3.73 3.75 3.85 4.16 4.26 4.05 3.83 3.68 3.31 3.03 2.99 2.91 2.70 2.61 2.48 2.27 2.31 2.43 2.32 2.21 2.29 2.33 2.29 2.18 2.03 1.96 1.79 1.68 1.55 1.42 1.19 1.01 0.97 0.99 1.01 1.05 1.09 1.11 1.03 0.93
2.65 3.06 3.37 3.61 3.80 3.74 3.66 3.86 3.92 3.85 3.72 3.55 3.29 3.19 3.01 2.82 2.70 2.66 2.60 2.50 2.58 2.54 2.42 2.36 2.40 2.47 2.36 2.30 2.27 2.19 2.01 1.87 1.57 1.29 1.13 1.04 1.02 1.06 1.08 1.06 1.03 1.00 0.88
2.34 2.68 3.01 3.31 3.60 3.83 3.81 4.01 4.13 4.12 3.89 3.64 3.33 3.12 2.97 2.89 2.81 2.68 2.68 2.67 2.67 2.70 2.60 2.49 2.42 2.44 2.45 2.35 2.30 2.43 2.17 1.83 1.58 1.41 1.21 1.11 1.08 1.09 1.12 1.13 1.07 1.02 0.96
2.07 2.33 2.61 3.01 3.37 3.68 3.86 3.87 3.89 3.97 3.75 3.38 3.23 3.27 3.13 2.90 2.80 2.75 2.67 2.65 2.69 2.68 2.62 2.65 2.65 2.52 2.51 2.49 2.41 2.24 2.02 1.74 1.65 1.54 1.39 1.28 1.19 1.13 1.15 1.17 1.13 1.06 1.03
1.84 2.12 2.31 2.62 2.98 3.27 3.36 3.42 3.58 3.69 3.70 3.52 3.41 3.35 3.28 2.99 2.73 2.63 2.62 2.59 2.57 2.60 2.61 2.65 2.69 2.72 2.63 2.52 2.43 2.33 2.20 1.93 1.73 1.68 1.56 1.47 1.46 1.32 1.23 1.20 1.19 1.17 1.12
1.55 1.85 2.11 2.25 2.51 2.77 2.92 3.02 3.17 3.20 3.35 3.40 3.32 3.33 3.33 3.13 2.83 2.61 2.53 2.47 2.46 2.48 2.49 2.56 2.64 2.73 2.68 2.54 2.40 2.23 2.17 2.05 1.87 1.81 1.66 1.49 1.53 1.46 1.37 1.30 1.25 1.26 1.28